Total_Precipitation_Accumulation
0.58 0.66 0.55 0.38 0.31 0.32 0.36 0.35 0.38 0.46 0.56 0.63 0.60 0.54 0.51 0.57 0.70 0.85 0.92 1.00 1.09 1.13 1.20 1.22 1.22 1.25 1.30 1.25 1.34 1.46 1.63 1.76 1.63 1.53 1.45 1.41 1.33 1.24 1.10 0.90 0.79 0.69 0.62
1.03 1.11 0.96 0.58 0.37 0.30 0.25 0.24 0.30 0.43 0.53 0.59 0.56 0.51 0.49 0.56 0.69 0.84 0.99 1.20 1.33 1.29 1.22 1.14 1.06 1.12 1.21 1.23 1.32 1.35 1.41 1.62 1.62 1.60 1.59 1.61 1.51 1.33 1.23 1.10 0.91 0.78 0.74
0.93 1.04 0.84 0.46 0.27 0.20 0.18 0.23 0.37 0.49 0.53 0.54 0.55 0.61 0.71 0.80 0.91 1.04 1.10 1.24 1.29 1.20 1.16 1.09 1.01 1.01 1.05 1.14 1.26 1.31 1.30 1.37 1.51 1.55 1.59 1.66 1.63 1.44 1.25 1.14 1.05 1.06 0.97
0.53 0.68 0.55 0.32 0.22 0.17 0.18 0.24 0.30 0.34 0.39 0.49 0.62 0.80 0.91 0.98 1.01 1.07 1.07 1.05 1.05 0.96 0.90 0.85 0.89 1.00 1.05 1.04 1.03 1.07 1.13 1.22 1.32 1.39 1.48 1.61 1.65 1.59 1.36 1.24 1.23 1.18 1.11
0.43 0.54 0.43 0.27 0.19 0.13 0.11 0.14 0.19 0.27 0.33 0.47 0.63 0.74 0.73 0.76 0.83 0.90 0.92 0.89 0.85 0.79 0.71 0.58 0.58 0.75 0.89 0.92 0.86 0.90 0.94 1.02 1.08 1.17 1.29 1.44 1.55 1.62 1.44 1.26 1.22 1.29 1.26
0.37 0.49 0.43 0.33 0.21 0.13 0.12 0.14 0.21 0.28 0.34 0.42 0.51 0.52 0.49 0.38 0.36 0.40 0.48 0.56 0.62 0.63 0.56 0.51 0.50 0.52 0.55 0.57 0.62 0.66 0.73 0.81 0.93 1.08 1.21 1.30 1.33 1.42 1.50 1.48 1.43 1.38 1.39
0.37 0.46 0.47 0.42 0.32 0.25 0.17 0.18 0.25 0.30 0.35 0.41 0.41 0.43 0.45 0.45 0.29 0.20 0.21 0.33 0.41 0.45 0.45 0.49 0.40 0.36 0.40 0.40 0.40 0.39 0.42 0.48 0.60 0.82 1.03 1.13 1.25 1.26 1.46 1.53 1.54 1.64 1.67
0.31 0.44 0.50 0.49 0.45 0.43 0.33 0.32 0.36 0.40 0.43 0.47 0.44 0.45 0.50 0.47 0.31 0.21 0.18 0.20 0.31 0.37 0.41 0.43 0.44 0.45 0.46 0.46 0.44 0.43 0.38 0.36 0.38 0.46 0.67 0.92 1.12 1.33 1.39 1.48 1.56 1.64 1.68
0.26 0.41 0.51 0.52 0.51 0.50 0.48 0.48 0.52 0.56 0.52 0.50 0.50 0.52 0.56 0.57 0.39 0.23 0.18 0.26 0.39 0.42 0.45 0.45 0.45 0.47 0.45 0.35 0.38 0.41 0.42 0.44 0.36 0.36 0.46 0.68 0.88 0.99 1.20 1.39 1.52 1.45 1.40
0.28 0.40 0.54 0.64 0.70 0.69 0.67 0.63 0.63 0.72 0.66 0.60 0.56 0.59 0.65 0.72 0.59 0.32 0.23 0.35 0.53 0.58 0.62 0.59 0.48 0.41 0.36 0.26 0.32 0.43 0.42 0.43 0.46 0.42 0.37 0.45 0.60 0.74 0.81 0.93 1.13 1.22 1.13
0.31 0.38 0.51 0.71 0.82 0.82 0.85 0.82 0.79 0.81 0.83 0.83 0.75 0.76 0.80 0.83 0.73 0.41 0.30 0.42 0.60 0.72 0.75 0.72 0.65 0.44 0.32 0.27 0.28 0.37 0.40 0.43 0.54 0.58 0.57 0.57 0.68 0.80 0.77 0.75 0.83 0.95 0.97
0.41 0.48 0.60 0.72 0.67 0.67 0.92 0.97 1.00 1.06 1.05 1.00 0.95 0.88 0.87 0.90 0.80 0.53 0.32 0.41 0.60 0.81 0.89 0.87 0.78 0.54 0.39 0.33 0.32 0.32 0.29 0.31 0.43 0.55 0.59 0.57 0.62 0.71 0.79 0.76 0.77 0.80 0.85
0.51 0.57 0.64 0.72 0.82 0.95 1.04 1.06 1.10 1.16 1.17 1.09 1.04 0.99 0.96 0.99 0.96 0.59 0.40 0.47 0.58 0.77 0.98 0.99 0.82 0.63 0.53 0.43 0.39 0.40 0.36 0.35 0.45 0.51 0.51 0.52 0.53 0.63 0.81 0.91 0.93 0.90 0.88
0.58 0.60 0.64 0.76 0.85 0.97 1.15 1.21 1.22 1.18 1.18 1.16 1.08 1.04 1.04 1.10 1.14 0.89 0.64 0.63 0.71 0.80 0.94 1.00 0.88 0.74 0.65 0.57 0.51 0.49 0.47 0.47 0.53 0.54 0.55 0.59 0.61 0.68 0.76 0.84 0.91 0.91 0.87
0.69 0.68 0.69 0.76 0.91 1.00 1.11 1.21 1.21 1.25 1.10 1.05 0.98 0.94 0.97 1.05 1.07 0.87 0.78 0.81 0.93 0.99 0.98 1.04 1.06 0.95 0.84 0.75 0.71 0.72 0.71 0.66 0.60 0.63 0.67 0.69 0.68 0.68 0.73 0.77 0.81 0.82 0.77
0.88 0.80 0.76 0.80 0.92 1.02 1.11 1.12 0.96 0.90 0.73 0.66 0.66 0.63 0.67 0.73 0.83 0.71 0.62 0.72 0.89 0.96 0.94 0.99 1.08 1.07 0.99 0.91 0.85 0.86 0.85 0.79 0.73 0.74 0.73 0.72 0.70 0.67 0.70 0.74 0.75 0.74 0.72
1.05 0.94 0.85 0.82 0.89 0.96 1.06 1.21 1.25 1.02 0.77 0.61 0.54 0.47 0.49 0.55 0.64 0.64 0.60 0.66 0.77 0.82 0.85 0.91 0.99 1.04 1.00 0.97 0.92 0.90 0.87 0.87 0.85 0.80 0.76 0.75 0.73 0.68 0.66 0.68 0.68 0.71 0.71
1.09 0.97 0.87 0.87 0.90 0.93 0.99 1.13 1.29 1.30 1.08 0.77 0.61 0.51 0.44 0.45 0.50 0.55 0.57 0.64 0.74 0.78 0.79 0.85 0.90 0.93 0.93 0.93 0.93 0.93 0.91 0.91 0.86 0.82 0.76 0.74 0.72 0.67 0.66 0.66 0.61 0.60 0.63
1.01 0.93 0.84 0.87 0.90 0.88 0.94 1.03 1.13 1.21 1.14 0.99 0.83 0.65 0.51 0.44 0.47 0.53 0.53 0.61 0.75 0.78 0.76 0.80 0.81 0.81 0.84 0.87 0.87 0.90 0.89 0.84 0.80 0.79 0.75 0.68 0.66 0.62 0.62 0.62 0.61 0.60 0.61
0.96 0.77 0.70 0.75 0.80 0.83 0.91 0.99 1.03 1.11 1.10 1.04 0.93 0.70 0.51 0.46 0.55 0.61 0.61 0.69 0.78 0.76 0.71 0.73 0.69 0.68 0.72 0.77 0.80 0.83 0.80 0.79 0.77 0.72 0.69 0.64 0.58 0.56 0.55 0.55 0.55 0.53 0.51
0.93 0.77 0.59 0.59 0.69 0.76 0.85 0.93 0.97 0.97 1.00 0.98 0.84 0.58 0.40 0.37 0.49 0.63 0.71 0.75 0.74 0.72 0.66 0.61 0.56 0.58 0.61 0.63 0.66 0.67 0.69 0.72 0.68 0.64 0.65 0.61 0.55 0.53 0.53 0.54 0.52 0.50 0.50
0.91 0.83 0.67 0.59 0.62 0.67 0.75 0.85 0.87 0.84 0.84 0.82 0.72 0.53 0.37 0.34 0.46 0.58 0.62 0.61 0.58 0.59 0.54 0.50 0.48 0.50 0.50 0.52 0.54 0.57 0.60 0.62 0.60 0.58 0.57 0.57 0.55 0.54 0.55 0.57 0.56 0.54 0.53
0.88 0.79 0.68 0.61 0.63 0.61 0.65 0.76 0.77 0.74 0.71 0.66 0.59 0.52 0.42 0.43 0.47 0.54 0.55 0.52 0.51 0.47 0.43 0.41 0.39 0.39 0.44 0.45 0.45 0.46 0.50 0.50 0.50 0.48 0.50 0.51 0.52 0.52 0.56 0.58 0.56 0.52 0.49
0.80 0.76 0.64 0.59 0.61 0.66 0.66 0.69 0.65 0.61 0.58 0.54 0.49 0.46 0.44 0.46 0.48 0.48 0.48 0.45 0.43 0.38 0.33 0.32 0.33 0.35 0.38 0.41 0.39 0.38 0.39 0.40 0.40 0.43 0.46 0.48 0.46 0.49 0.54 0.55 0.53 0.49 0.48
0.77 0.78 0.68 0.58 0.57 0.60 0.61 0.62 0.59 0.57 0.52 0.44 0.43 0.43 0.43 0.43 0.43 0.45 0.42 0.38 0.33 0.31 0.28 0.29 0.34 0.34 0.31 0.31 0.31 0.29 0.30 0.30 0.32 0.37 0.44 0.49 0.45 0.44 0.47 0.48 0.48 0.46 0.46
0.70 0.73 0.66 0.57 0.52 0.52 0.53 0.59 0.60 0.54 0.48 0.40 0.38 0.39 0.36 0.32 0.31 0.32 0.30 0.27 0.26 0.24 0.24 0.26 0.28 0.28 0.28 0.26 0.24 0.23 0.22 0.23 0.25 0.30 0.33 0.40 0.45 0.43 0.44 0.46 0.43 0.43 0.42